Ketchikan, AK

2:01 PM AKDT on April 29, 2017 (GMT -0800)
Ketchikan International

Weather History for PAKT - November, 2011

Change the Weather History Date:

Sunday, November 20, 2011

  Actual Average Record
Temperature  
Mean Temperature 31 °F -  
Max Temperature 36 °F 43 °F 56 °F (1949)
Min Temperature 26 °F 32 °F 10 °F (1996)
Degree Days  
Heating Degree Days 34    
Moisture  
Dew Point 28 °F    
Average Humidity 87    
Maximum Humidity 93    
Minimum Humidity 78    
Precipitation  
Precipitation 0.22 in - - ()
Sea Level Pressure  
Sea Level Pressure 29.31 in    
Wind  
Wind Speed 6 mph (SSE)    
Max Wind Speed 26 mph    
Max Gust Speed 47 mph    
Visibility 6 miles    
Events Snow    
Averages and records for this station are not official NWS values.
T = Trace of Precipitation, MM = Missing Value Source: NWS Daily Summary

Daily Weather History Graph

Daily Weather History Graph

Search for Another Location

Airport or City:

Trip Planner

Search our weather history database for the weather conditions in past years. The results will help you decide how hot, cold, wet, or windy it might be!

Date:

Astronomy

Nov. 20, 2011 Rise Set
Actual Time 7:30 AM AKST 3:34 PM AKST
Civil Twilight 6:47 AM AKST 4:16 PM AKST
Nautical Twilight 6:02 AM AKST 5:02 PM AKST
Astronomical Twilight 5:18 AM AKST 5:45 PM AKST
Moon 1:17 AM AKST (11/20) 1:09 PM AKST (11/20)
Length of Visible Light 9h 28m
Length of Day
8h 04m
Waning Crescent, 26% of the Moon is Illuminated
Nov 20
Waning Crescent
Nov 24
New
Dec 2
First Quarter
Dec 10
Full
Dec 17
Last Quarter

Hourly Weather History & Observations

Time (AKST) Temp. Windchill Dew Point Humidity Pressure Visibility Wind Dir Wind Speed Gust Speed Precip Events Conditions
12:51 AM 26.6 °F - 23.0 °F 86% 29.68 in 10.0 mi Calm Calm - 0.00 in   Overcast
12:53 AM 26.1 °F - 23.0 °F 88% 29.69 in 10.0 mi Calm Calm - 0.00 in   Overcast
1:53 AM 26.1 °F - 24.1 °F 92% 29.68 in 10.0 mi Calm Calm - N/A   Overcast
3:19 AM 26.6 °F - 24.8 °F 93% 29.66 in 10.0 mi Calm Calm - N/A   Overcast
3:42 AM 26.6 °F - 24.8 °F 93% 29.65 in 10.0 mi Calm Calm - N/A   Overcast
3:53 AM 27.0 °F - 24.1 °F 89% 29.65 in 10.0 mi Calm Calm - N/A   Overcast
4:53 AM 26.6 °F - 24.8 °F 93% 29.62 in 10.0 mi Calm Calm - N/A   Overcast
5:53 AM 27.0 °F - 24.1 °F 89% 29.60 in 10.0 mi Calm Calm - N/A   Overcast
6:53 AM 27.0 °F - 24.1 °F 89% 29.57 in 10.0 mi Calm Calm - N/A   Overcast
7:53 AM 28.0 °F - 24.1 °F 85% 29.56 in 8.0 mi Calm Calm - N/A   Overcast
8:53 AM 28.0 °F 24.2 °F 24.1 °F 85% 29.53 in 6.0 mi South 3.5 mph - 0.00 in Snow Light Snow
9:53 AM 28.9 °F 25.2 °F 25.0 °F 85% 29.52 in 4.0 mi Variable 3.5 mph - 0.00 in Snow Light Snow
10:53 AM 28.9 °F 21.9 °F 26.1 °F 89% 29.49 in 3.0 mi SSE 6.9 mph - 0.00 in Snow Light Snow
11:31 AM 28.4 °F 22.2 °F 26.6 °F 93% 29.46 in 1.0 mi SSE 5.8 mph - 0.01 in Snow Light Snow
11:53 AM 28.9 °F 22.8 °F 27.0 °F 92% 29.44 in 3.0 mi SSE 5.8 mph - 0.01 in Snow Light Snow
12:53 PM 30.0 °F 23.2 °F 27.0 °F 88% 29.40 in 3.0 mi SSE 6.9 mph - 0.01 in Snow Light Snow
1:53 PM 30.0 °F 25.2 °F 27.0 °F 88% 29.36 in 3.0 mi SSE 4.6 mph - 0.00 in Snow Light Snow
2:53 PM 30.9 °F 23.5 °F 27.0 °F 85% 29.30 in 9.0 mi SSE 8.1 mph - 0.00 in   Overcast
3:53 PM 32.0 °F 23.6 °F 27.0 °F 82% 29.25 in 4.0 mi SSE 10.4 mph - 0.00 in Snow Light Snow
4:53 PM 33.1 °F 24.9 °F 28.0 °F 82% 29.21 in 5.0 mi SSE 10.4 mph - 0.01 in Snow Light Snow
5:53 PM 35.1 °F 25.2 °F 28.9 °F 78% 29.14 in 9.0 mi SSE 16.1 mph 39.1 mph 0.00 in Snow Light Snow
6:53 PM 36.0 °F 26.7 °F 30.0 °F 79% 29.06 in 7.0 mi SE 15.0 mph 47.2 mph 0.00 in Snow Light Snow
7:53 PM 36.0 °F 24.4 °F 30.0 °F 79% 29.03 in 5.0 mi SE 23.0 mph 44.9 mph 0.00 in Snow Light Snow
8:53 PM 35.1 °F 23.5 °F 30.9 °F 85% 29.00 in 7.0 mi SSE 21.9 mph 44.9 mph 0.01 in Snow Light Snow
9:10 PM 35.6 °F 25.2 °F 30.2 °F 81% 28.99 in 10.0 mi SSE 18.4 mph 31.1 mph 0.00 in Snow Light Snow
9:32 PM 35.6 °F 25.2 °F 30.2 °F 81% 28.98 in 7.0 mi SSE 18.4 mph 29.9 mph 0.00 in Snow Light Snow
9:53 PM 35.1 °F 23.8 °F 30.9 °F 85% 28.98 in 8.0 mi SE 20.7 mph 33.4 mph 0.01 in Snow Light Snow
10:14 PM 33.8 °F 22.8 °F 32.0 °F 93% 28.99 in 2.5 mi SE 18.4 mph 27.6 mph 0.01 in Snow Light Snow
10:24 PM 33.8 °F 23.9 °F 32.0 °F 93% 28.99 in 1.8 mi SE 15.0 mph 27.6 mph 0.03 in Snow Light Snow
10:29 PM 35.6 °F 25.5 °F 32.0 °F 87% 28.99 in 3.0 mi SSE 17.3 mph 27.6 mph 0.03 in Snow Light Snow
10:53 PM 35.1 °F 22.5 °F 32.0 °F 89% 29.00 in 3.0 mi SE 26.5 mph 36.8 mph 0.07 in Snow Light Snow
11:01 PM 35.6 °F 24.5 °F 32.0 °F 87% 28.99 in 2.5 mi SE 20.7 mph 33.4 mph 0.02 in Snow Light Snow
11:08 PM 35.6 °F 24.2 °F 32.0 °F 87% 29.00 in 4.0 mi SE 21.9 mph 33.4 mph 0.03 in Snow Light Snow
11:53 PM 35.1 °F 25.9 °F 33.1 °F 92% 29.03 in 4.0 mi SSE 13.8 mph 26.5 mph 0.10 in Snow Light Snow